When you browse on this site, cookies collect data to enhance your experience and personalize the content and advertising you see.
Visit our Privacy Policy to learn more. By continuing to use the site, you agree to this use of cookies and data.
  • In Hungary
  • List of Countries
  • For 7 days
  • Water Temperature
  • Weather Map
  • News
  • Weather Widgets
  • user-avatar
    Login

    Hourly Weather Kuvandyk

    Today, 18 November, Monday

    Time Temperature Precipitation Wind Pressure Humidity
    00:00 -2°C° 0 mm 3 mps 752 mmHg 91%
    01:00 -2°C° 0 mm 2 mps 752 mmHg 93%
    02:00 -2°C° 0 mm 2 mps 752 mmHg 93%
    03:00 -2°C° 0 mm 2 mps 752 mmHg 94%
    04:00 -1°C° 0 mm 3 mps 752 mmHg 97%
    05:00 -1°C° 0 mm 3 mps 752 mmHg 97%
    06:00 -1°C° 0 mm 3 mps 752 mmHg 96%
    07:00 -1°C° 0 mm 3 mps 751 mmHg 95%
    08:00 -1°C° 0 mm 3 mps 751 mmHg 93%
    09:00 -2°C° 0 mm 4 mps 751 mmHg 91%
    10:00 -1°C° 0 mm 4 mps 751 mmHg 89%
    11:00 -1°C° 0 mm 4 mps 751 mmHg 87%
    12:00 0°C° 0 mm 4 mps 751 mmHg 84%
    13:00 0°C° 0 mm 4 mps 751 mmHg 82%
    14:00 0°C° 0 mm 4 mps 751 mmHg 86%
    15:00 -1°C° 0 mm 4 mps 751 mmHg 90%
    16:00 0°C° 0 mm 3 mps 750 mmHg 94%
    17:00 0°C° 0.1 mm 3 mps 750 mmHg 95%
    18:00 -1°C° 0.1 mm 3 mps 750 mmHg 95%
    19:00 -1°C° 0.1 mm 3 mps 749 mmHg 96%
    20:00 -1°C° 0 mm 3 mps 749 mmHg 97%
    21:00 -1°C° 0 mm 3 mps 749 mmHg 97%
    22:00 -1°C° 0 mm 2 mps 748 mmHg 97%
    23:00 -1°C° 0.3 mm 2 mps 748 mmHg 98%

    Tomorrow, 19 November, Tuesday

    Time Temperature Precipitation Wind Pressure Humidity
    00:00 +1°C° 0.3 mm 2 mps 748 mmHg 98%
    01:00 +1°C° 0.3 mm 2 mps 747 mmHg 98%
    02:00 +1°C° 0.9 mm 2 mps 747 mmHg 98%
    03:00 +1°C° 0.9 mm 2 mps 747 mmHg 98%
    04:00 +2°C° 0.9 mm 1 mps 747 mmHg 99%
    05:00 -1°C° 0.1 mm 2 mps 747 mmHg 97%
    06:00 -1°C° 0.1 mm 3 mps 747 mmHg 96%
    07:00 -2°C° 0.1 mm 4 mps 747 mmHg 95%
    08:00 -5°C° 0 mm 5 mps 748 mmHg 91%
    09:00 -6°C° 0 mm 6 mps 748 mmHg 88%
    10:00 -8°C° 0 mm 8 mps 749 mmHg 84%
    11:00 -10°C° 0 mm 8 mps 749 mmHg 84%
    12:00 -12°C° 0 mm 8 mps 750 mmHg 84%
    13:00 -13°C° 0 mm 8 mps 750 mmHg 84%
    14:00 -13°C° 0 mm 8 mps 751 mmHg 83%
    15:00 -15°C° 0 mm 8 mps 751 mmHg 83%
    16:00 -16°C° 0 mm 8 mps 752 mmHg 83%
    17:00 -17°C° 0.1 mm 8 mps 752 mmHg 83%
    18:00 -18°C° 0.1 mm 8 mps 753 mmHg 83%
    19:00 -18°C° 0.1 mm 8 mps 753 mmHg 83%
    20:00 -19°C° 0 mm 8 mps 754 mmHg 79%
    21:00 -21°C° 0 mm 8 mps 754 mmHg 76%
    22:00 -22°C° 0 mm 8 mps 755 mmHg 72%
    23:00 -22°C° 0 mm 8 mps 755 mmHg 73%

    Day after tomorrow, 20 November, Wednesday

    Time Temperature Precipitation Wind Pressure Humidity
    00:00 -23°C° 0 mm 8 mps 755 mmHg 74%
    01:00 -23°C° 0 mm 8 mps 756 mmHg 76%
    02:00 -23°C° 0 mm 7 mps 756 mmHg 76%
    03:00 -24°C° 0 mm 7 mps 757 mmHg 77%
    04:00 -24°C° 0 mm 7 mps 757 mmHg 77%
    05:00 -24°C° 0 mm 7 mps 758 mmHg 78%
    06:00 -25°C° 0 mm 7 mps 758 mmHg 79%
    07:00 -25°C° 0 mm 7 mps 758 mmHg 79%
    08:00 -25°C° 0 mm 7 mps 759 mmHg 78%
    09:00 -25°C° 0 mm 7 mps 759 mmHg 77%
    10:00 -24°C° 0 mm 7 mps 760 mmHg 76%
    11:00 -24°C° 0 mm 7 mps 760 mmHg 75%
    12:00 -22°C° 0 mm 6 mps 760 mmHg 74%
    13:00 -22°C° 0 mm 6 mps 760 mmHg 73%
    14:00 -22°C° 0 mm 6 mps 761 mmHg 75%
    15:00 -22°C° 0 mm 6 mps 761 mmHg 77%
    16:00 -21°C° 0 mm 5 mps 761 mmHg 78%
    17:00 -21°C° 0 mm 5 mps 762 mmHg 79%
    18:00 -21°C° 0 mm 5 mps 762 mmHg 79%
    19:00 -21°C° 0 mm 5 mps 762 mmHg 80%
    20:00 -21°C° 0 mm 5 mps 762 mmHg 80%
    21:00 -20°C° 0 mm 4 mps 763 mmHg 80%
    22:00 -20°C° 0 mm 4 mps 763 mmHg 81%
    23:00 -20°C° 0 mm 4 mps 763 mmHg 81%

    21 November, Thursday

    Time Temperature Precipitation Wind Pressure Humidity
    00:00 -19°C° 0 mm 3 mps 763 mmHg 81%
    01:00 -19°C° 0 mm 3 mps 763 mmHg 82%
    02:00 -19°C° 0 mm 3 mps 763 mmHg 82%
    03:00 -18°C° 0 mm 2 mps 763 mmHg 82%
    04:00 -18°C° 0 mm 2 mps 763 mmHg 82%
    05:00 -18°C° 0 mm 2 mps 763 mmHg 81%
    06:00 -18°C° 0 mm 2 mps 763 mmHg 81%
    07:00 -16°C° 0 mm 1 mps 763 mmHg 81%
    08:00 -15°C° 0 mm 1 mps 763 mmHg 76%
    09:00 -14°C° 0 mm 1 mps 764 mmHg 72%
    10:00 -13°C° 0 mm 1 mps 764 mmHg 67%
    11:00 -12°C° 0 mm 1 mps 763 mmHg 65%
    12:00 -11°C° 0 mm 1 mps 763 mmHg 63%
    13:00 -10°C° 0 mm 1 mps 763 mmHg 61%
    14:00 -11°C° 0 mm 1 mps 762 mmHg 66%
    15:00 -11°C° 0 mm 1 mps 762 mmHg 72%
    16:00 -11°C° 0 mm 1 mps 762 mmHg 77%
    17:00 -11°C° 0 mm 1 mps 761 mmHg 79%
    18:00 -11°C° 0 mm 1 mps 761 mmHg 82%
    19:00 -12°C° 0 mm 1 mps 761 mmHg 84%
    20:00 -12°C° 0 mm 1 mps 761 mmHg 85%
    21:00 -12°C° 0 mm 1 mps 761 mmHg 86%
    22:00 -12°C° 0 mm 1 mps 760 mmHg 86%
    23:00 -12°C° 0 mm 1 mps 760 mmHg 86%

    22 November, Friday

    Time Temperature Precipitation Wind Pressure Humidity
    00:00 -12°C° 0 mm 1 mps 760 mmHg 86%
    01:00 -12°C° 0 mm 1 mps 760 mmHg 86%
    02:00 -12°C° 0 mm 1 mps 760 mmHg 85%
    03:00 -12°C° 0 mm 0 mps 760 mmHg 85%
    04:00 -12°C° 0 mm 0 mps 759 mmHg 84%
    05:00 -12°C° 0 mm 0 mps 759 mmHg 83%
    06:00 -12°C° 0 mm 0 mps 759 mmHg 83%
    07:00 -12°C° 0 mm 0 mps 759 mmHg 82%
    08:00 -11°C° 0 mm 0 mps 759 mmHg 79%
    09:00 -10°C° 0 mm 1 mps 759 mmHg 76%
    10:00 -9°C° 0 mm 1 mps 759 mmHg 73%
    11:00 -9°C° 0 mm 1 mps 759 mmHg 70%
    12:00 -8°C° 0 mm 1 mps 759 mmHg 68%
    13:00 -7°C° 0 mm 1 mps 759 mmHg 65%
    14:00 -8°C° 0 mm 1 mps 759 mmHg 69%
    15:00 -8°C° 0 mm 1 mps 759 mmHg 74%
    16:00 -9°C° 0 mm 1 mps 758 mmHg 78%
    17:00 -9°C° 0 mm 1 mps 758 mmHg 79%
    18:00 -10°C° 0 mm 1 mps 758 mmHg 81%
    19:00 -10°C° 0 mm 1 mps 758 mmHg 82%
    20:00 -10°C° 0 mm 1 mps 758 mmHg 82%
    21:00 -10°C° 0 mm 1 mps 758 mmHg 82%
    22:00 -10°C° 0 mm 1 mps 758 mmHg 82%
    23:00 -10°C° 0 mm 1 mps 758 mmHg 82%

    23 November, Saturday

    Time Temperature Precipitation Wind Pressure Humidity
    00:00 -10°C° 0 mm 1 mps 758 mmHg 82%
    01:00 -10°C° 0 mm 1 mps 758 mmHg 82%
    02:00 -10°C° 0 mm 1 mps 757 mmHg 81%
    03:00 -10°C° 0 mm 1 mps 757 mmHg 81%
    04:00 -11°C° 0 mm 1 mps 757 mmHg 81%
    05:00 -11°C° 0 mm 1 mps 757 mmHg 81%
    06:00 -11°C° 0 mm 1 mps 756 mmHg 81%
    07:00 -11°C° 0 mm 1 mps 756 mmHg 80%
    08:00 -10°C° 0 mm 1 mps 756 mmHg 77%
    09:00 -10°C° 0 mm 1 mps 756 mmHg 74%
    10:00 -9°C° 0 mm 1 mps 756 mmHg 71%
    11:00 -8°C° 0 mm 1 mps 755 mmHg 69%
    12:00 -8°C° 0 mm 2 mps 755 mmHg 67%
    13:00 -7°C° 0 mm 2 mps 755 mmHg 64%
    14:00 -8°C° 0 mm 2 mps 755 mmHg 68%
    15:00 -8°C° 0 mm 2 mps 754 mmHg 72%
    16:00 -9°C° 0 mm 2 mps 754 mmHg 77%
    17:00 -9°C° 0 mm 2 mps 754 mmHg 77%
    18:00 -10°C° 0 mm 2 mps 754 mmHg 78%
    19:00 -9°C° 0 mm 1 mps 754 mmHg 78%
    20:00 -9°C° 0 mm 1 mps 754 mmHg 78%
    21:00 -9°C° 0 mm 1 mps 754 mmHg 79%
    22:00 -9°C° 0 mm 1 mps 754 mmHg 79%
    23:00 -9°C° 0 mm 1 mps 754 mmHg 80%
    Show more